| time (UTC) | temp F | wind direction | speed knots | gust knots | rain 1hr in | rain 24hr in | rain mn in | humidity % | barometer mb |
| 20260510230042 | 35 | 51 | 0.0 | 0.0 | 0.00 | 0.00 | 0.00 | 83 | 1012.3 |
| 20260510225055 | 36 | 50 | 0.0 | 0.0 | 0.00 | 0.00 | 0.00 | 82 | 1012.4 |
| 20260510224045 | 36 | 50 | 0.0 | 0.0 | 0.00 | 0.00 | 0.00 | 82 | 1012.7 |
| 20260510223039 | 36 | 50 | 0.0 | 0.0 | 0.00 | 0.00 | 0.00 | 81 | 1012.7 |
| 20260510222016 | 36 | 51 | 0.0 | 0.0 | 0.00 | 0.00 | 0.00 | 80 | 1013.0 |
| 20260510221036 | 37 | 50 | 0.0 | 0.0 | 0.00 | 0.00 | 0.00 | 80 | 1013.1 |
| 20260510220014 | 37 | 50 | 0.0 | 0.0 | 0.00 | 0.00 | 0.00 | 80 | 1013.2 |
| 20260510213840 | 38 | 50 | 0.0 | 0.0 | 0.00 | 0.00 | 0.00 | 78 | 1013.4 |
| 20260510212859 | 39 | 51 | 0.0 | 0.0 | 0.00 | 0.00 | 0.00 | 78 | 1013.5 |
| 20260510211859 | 39 | 50 | 0.0 | 0.0 | 0.00 | 0.00 | 0.00 | 77 | 1013.5 |
| 20260510210856 | 40 | 50 | 0.0 | 0.0 | 0.00 | 0.00 | 0.00 | 75 | 1013.6 |
| 20260510205909 | 40 | 50 | 0.0 | 0.0 | 0.00 | 0.00 | 0.00 | 74 | 1013.8 |
| 20260510203743 | 42 | 50 | 0.0 | 0.0 | 0.00 | 0.00 | 0.00 | 73 | 1014.0 |
| 20260510202744 | 43 | 50 | 0.0 | 0.9 | 0.00 | 0.00 | 0.00 | 72 | 1014.1 |
| 20260510201713 | 44 | 50 | 0.0 | 0.0 | 0.00 | 0.00 | 0.00 | 72 | 1014.2 |
| 20260510195528 | 45 | 50 | 0.0 | 0.0 | 0.00 | 0.00 | 0.00 | 71 | 1014.3 |
| 20260510194522 | 46 | 50 | 0.0 | 1.7 | 0.00 | 0.00 | 0.00 | 70 | 1014.3 |
| 20260510193515 | 46 | 50 | 0.0 | 1.7 | 0.00 | 0.00 | 0.00 | 70 | 1014.4 |
| 20260510192449 | 47 | 50 | 0.9 | 2.6 | 0.00 | 0.00 | 0.00 | 68 | 1014.5 |
| 20260510191433 | 47 | 56 | 0.0 | 1.7 | 0.00 | 0.00 | 0.00 | 68 | 1014.6 |
| 20260510185247 | 48 | 30 | 2.6 | 7.8 | 0.00 | 0.00 | 0.00 | 65 | 1014.9 |
| 20260510184218 | 48 | 22 | 2.6 | 7.8 | 0.00 | 0.00 | 0.00 | 64 | 1015.0 |
| 20260510183236 | 48 | 70 | 3.5 | 10.4 | 0.00 | 0.00 | 0.00 | 61 | 1015.1 |
| 20260510182243 | 49 | 65 | 4.3 | 10.4 | 0.00 | 0.00 | 0.00 | 61 | 1015.2 |
| 20260510181229 | 49 | 33 | 3.5 | 9.6 | 0.00 | 0.00 | 0.00 | 61 | 1015.3 |
| 20260510180249 | 49 | 27 | 3.5 | 8.7 | 0.00 | 0.00 | 0.00 | 61 | 1015.3 |
| 20260510171828 | 51 | 67 | 4.3 | 10.4 | 0.00 | 0.00 | 0.00 | 60 | 1015.6 |
| 20260510170757 | 50 | 30 | 4.3 | 10.4 | 0.00 | 0.00 | 0.00 | 61 | 1015.8 |
| 20260510165734 | 50 | 44 | 5.2 | 11.3 | 0.00 | 0.00 | 0.00 | 60 | 1016.0 |
| 20260510163615 | 51 | 48 | 6.1 | 14.8 | 0.00 | 0.00 | 0.00 | 58 | 1016.1 |
| 20260510162552 | 50 | 23 | 4.3 | 11.3 | 0.00 | 0.00 | 0.00 | 60 | 1016.2 |
| 20260510161554 | 50 | 80 | 6.1 | 12.2 | 0.00 | 0.00 | 0.00 | 61 | 1016.4 |
| 20260510160545 | 51 | 55 | 5.2 | 13.0 | 0.00 | 0.00 | 0.00 | 61 | 1016.5 |
| 20260510155518 | 51 | 34 | 5.2 | 13.0 | 0.00 | 0.00 | 0.00 | 60 | 1016.7 |
| 20260510154446 | 52 | 45 | 6.1 | 12.2 | 0.00 | 0.00 | 0.00 | 59 | 1016.7 |
| 20260510153432 | 53 | 22 | 6.1 | 11.3 | 0.00 | 0.00 | 0.00 | 58 | 1016.8 |
| 20260510152424 | 52 | 83 | 6.1 | 13.0 | 0.00 | 0.00 | 0.00 | 60 | 1016.9 |
| 20260510151357 | 53 | 61 | 5.2 | 15.6 | 0.00 | 0.00 | 0.00 | 61 | 1017.0 |
| 20260510150323 | 52 | 63 | 6.1 | 15.6 | 0.00 | 0.00 | 0.00 | 63 | 1017.0 |
| 20260510145330 | 52 | 67 | 6.1 | 13.9 | 0.00 | 0.00 | 0.00 | 63 | 1017.1 |
| 20260510144338 | 54 | 32 | 7.8 | 15.6 | 0.00 | 0.00 | 0.00 | 60 | 1017.1 |
| 20260510143317 | 54 | 49 | 7.0 | 15.6 | 0.00 | 0.00 | 0.00 | 61 | 1017.2 |
| 20260510142259 | 53 | 26 | 7.0 | 14.8 | 0.00 | 0.00 | 0.00 | 62 | 1017.4 |
| 20260510141249 | 52 | 42 | 6.1 | 14.8 | 0.00 | 0.00 | 0.00 | 63 | 1017.5 |
| 20260510140228 | 52 | 63 | 7.8 | 14.8 | 0.00 | 0.00 | 0.00 | 63 | 1017.7 |
| 20260510135218 | 52 | 5 | 7.8 | 14.8 | 0.00 | 0.00 | 0.00 | 63 | 1017.7 |
| 20260510134213 | 53 | 54 | 7.0 | 16.5 | 0.00 | 0.00 | 0.00 | 66 | 1017.7 |
| 20260510132054 | 53 | 56 | 7.8 | 15.6 | 0.00 | 0.00 | 0.00 | 65 | 1017.8 |
| 20260510130003 | 53 | 61 | 7.0 | 13.9 | 0.00 | 0.00 | 0.00 | 66 | 1017.9 |
| 20260510124934 | 54 | 43 | 6.1 | 13.9 | 0.00 | 0.00 | 0.00 | 64 | 1018.1 |
| 20260510123914 | 54 | 30 | 7.0 | 14.8 | 0.00 | 0.00 | 0.00 | 65 | 1018.2 |
| 20260510122916 | 54 | 26 | 7.0 | 15.6 | 0.00 | 0.00 | 0.00 | 63 | 1018.3 |
| 20260510121847 | 54 | 32 | 7.0 | 15.6 | 0.00 | 0.00 | 0.00 | 63 | 1018.3 |
| 20260510120907 | 54 | 21 | 7.0 | 14.8 | 0.00 | 0.00 | 0.00 | 65 | 1018.3 |
| 20260510115915 | 53 | 38 | 7.0 | 15.6 | 0.00 | 0.00 | 0.00 | 65 | 1018.4 |
| 20260510114902 | 53 | 50 | 7.0 | 15.6 | 0.00 | 0.00 | 0.00 | 66 | 1018.5 |
| 20260510113838 | 54 | 38 | 5.2 | 14.8 | 0.00 | 0.00 | 0.00 | 68 | 1018.6 |
| 20260510111651 | 52 | 23 | 7.8 | 17.4 | 0.00 | 0.00 | 0.00 | 70 | 1018.7 |
| 20260510110704 | 52 | 17 | 7.8 | 17.4 | 0.00 | 0.00 | 0.00 | 69 | 1018.7 |
| 20260510105708 | 52 | 5 | 7.0 | 16.5 | 0.00 | 0.00 | 0.00 | 69 | 1018.8 |
| 20260510104657 | 52 | 21 | 7.0 | 14.8 | 0.00 | 0.00 | 0.00 | 70 | 1018.8 |
| 20260510103705 | 52 | 63 | 7.0 | 14.8 | 0.00 | 0.00 | 0.00 | 69 | 1018.9 |
| 20260510102719 | 52 | 60 | 7.8 | 14.8 | 0.00 | 0.00 | 0.00 | 71 | 1019.0 |
| 20260510101703 | 52 | 79 | 7.0 | 17.4 | 0.00 | 0.00 | 0.00 | 70 | 1019.0 |
| 20260510100642 | 53 | 37 | 7.8 | 17.4 | 0.00 | 0.00 | 0.00 | 69 | 1019.0 |
| 20260510095646 | 52 | 45 | 7.8 | 16.5 | 0.00 | 0.00 | 0.00 | 69 | 1019.1 |
| 20260510094645 | 51 | 20 | 7.0 | 17.4 | 0.00 | 0.00 | 0.00 | 73 | 1019.1 |
| 20260510093706 | 51 | 53 | 7.0 | 17.4 | 0.00 | 0.00 | 0.00 | 73 | 1019.3 |
| 20260510092642 | 52 | 17 | 6.1 | 14.8 | 0.00 | 0.00 | 0.00 | 74 | 1019.3 |
| 20260510090604 | 51 | 40 | 5.2 | 12.2 | 0.00 | 0.00 | 0.00 | 74 | 1019.4 |
| 20260510085542 | 51 | 36 | 7.0 | 13.9 | 0.00 | 0.00 | 0.00 | 76 | 1019.4 |
| 20260510084523 | 51 | 355 | 6.1 | 13.9 | 0.00 | 0.00 | 0.00 | 76 | 1019.4 |
| 20260510083531 | 51 | 88 | 7.0 | 14.8 | 0.00 | 0.00 | 0.00 | 76 | 1019.4 |
| 20260510082511 | 51 | 42 | 7.8 | 14.8 | 0.00 | 0.00 | 0.00 | 76 | 1019.4 |
| 20260510081503 | 51 | 29 | 6.1 | 13.9 | 0.00 | 0.00 | 0.00 | 77 | 1019.3 |
| 20260510080430 | 50 | 59 | 6.1 | 13.0 | 0.00 | 0.00 | 0.00 | 78 | 1019.4 |
| 20260510073119 | 50 | 32 | 7.0 | 13.0 | 0.00 | 0.00 | 0.00 | 79 | 1019.1 |
| 20260510072104 | 50 | 53 | 5.2 | 13.0 | 0.00 | 0.00 | 0.00 | 79 | 1019.1 |
| 20260510065922 | 50 | 57 | 7.0 | 16.5 | 0.00 | 0.00 | 0.00 | 79 | 1019.0 |
| 20260510064914 | 49 | 33 | 7.8 | 14.8 | 0.00 | 0.00 | 0.00 | 80 | 1018.9 |
| 20260510063849 | 50 | 20 | 6.1 | 13.0 | 0.00 | 0.00 | 0.00 | 82 | 1018.8 |
| 20260510062909 | 49 | 61 | 7.0 | 15.6 | 0.00 | 0.00 | 0.00 | 82 | 1018.7 |
| 20260510061906 | 50 | 28 | 7.0 | 15.6 | 0.00 | 0.00 | 0.00 | 84 | 1018.7 |
| 20260510060851 | 50 | 54 | 7.0 | 15.6 | 0.00 | 0.00 | 0.00 | 84 | 1018.6 |
| 20260510055900 | 50 | 24 | 7.0 | 15.6 | 0.00 | 0.00 | 0.00 | 85 | 1018.6 |
| 20260510053706 | 50 | 31 | 6.1 | 15.6 | 0.00 | 0.00 | 0.00 | 85 | 1018.6 |
| 20260510052655 | 50 | 82 | 7.0 | 15.6 | 0.00 | 0.00 | 0.00 | 85 | 1018.6 |
| 20260510051719 | 50 | 74 | 5.2 | 16.5 | 0.00 | 0.00 | 0.00 | 85 | 1018.7 |
| 20260510050704 | 50 | 55 | 7.8 | 16.5 | 0.00 | 0.00 | 0.00 | 85 | 1018.7 |
| 20260510044544 | 50 | 36 | 6.1 | 13.0 | 0.00 | 0.00 | 0.00 | 86 | 1018.5 |
| 20260510043550 | 50 | 75 | 6.1 | 13.0 | 0.00 | 0.00 | 0.00 | 85 | 1018.6 |
| 20260510041351 | 50 | 36 | 4.3 | 13.9 | 0.00 | 0.00 | 0.00 | 85 | 1018.4 |
| 20260510040402 | 50 | 39 | 6.1 | 13.9 | 0.00 | 0.00 | 0.00 | 85 | 1018.5 |
| 20260510035404 | 50 | 26 | 4.3 | 11.3 | 0.00 | 0.00 | 0.00 | 86 | 1018.7 |
| 20260510034412 | 51 | 34 | 4.3 | 13.0 | 0.00 | 0.00 | 0.00 | 86 | 1018.6 |
| 20260510033339 | 51 | 61 | 5.2 | 13.0 | 0.00 | 0.00 | 0.00 | 86 | 1018.8 |
| 20260510032327 | 51 | 63 | 4.3 | 10.4 | 0.00 | 0.00 | 0.00 | 86 | 1018.9 |
| 20260510030126 | 51 | 29 | 4.3 | 9.6 | 0.00 | 0.00 | 0.00 | 86 | 1018.9 |
| 20260510025138 | 51 | 23 | 3.5 | 9.6 | 0.00 | 0.00 | 0.00 | 86 | 1019.0 |
| 20260510024132 | 51 | 46 | 3.5 | 9.6 | 0.00 | 0.00 | 0.00 | 86 | 1019.1 |
| 20260510023138 | 51 | 35 | 4.3 | 11.3 | 0.00 | 0.00 | 0.00 | 86 | 1019.1 |
| 20260510022109 | 51 | 93 | 4.3 | 11.3 | 0.00 | 0.00 | 0.00 | 86 | 1019.1 |
| 20260510021059 | 51 | 30 | 4.3 | 8.7 | 0.00 | 0.00 | 0.00 | 86 | 1019.0 |
| 20260510020041 | 51 | 54 | 3.5 | 9.6 | 0.00 | 0.00 | 0.00 | 86 | 1019.0 |
| 20260510015032 | 51 | 32 | 3.5 | 9.6 | 0.00 | 0.00 | 0.00 | 86 | 1019.0 |
| 20260510014033 | 51 | 59 | 3.5 | 8.7 | 0.00 | 0.00 | 0.00 | 86 | 1019.2 |
| 20260510010728 | 51 | 44 | 3.5 | 9.6 | 0.00 | 0.00 | 0.00 | 86 | 1019.0 |
| 20260510005710 | 51 | 28 | 4.3 | 12.2 | 0.00 | 0.00 | 0.00 | 86 | 1019.1 |
| 20260510004637 | 51 | 16 | 5.2 | 12.2 | 0.00 | 0.00 | 0.00 | 86 | 1019.0 |
| 20260510003610 | 51 | 33 | 5.2 | 11.3 | 0.00 | 0.00 | 0.00 | 86 | 1019.1 |
| 20260510002538 | 51 | 14 | 3.5 | 10.4 | 0.00 | 0.00 | 0.00 | 86 | 1019.2 |
| 20260510001520 | 51 | 17 | 3.5 | 10.4 | 0.00 | 0.00 | 0.00 | 86 | 1019.2 |
| 20260509235425 | 51 | 34 | 1.7 | 7.0 | 0.00 | 0.00 | 0.00 | 86 | 1019.6 |
| 20260509234418 | 51 | 35 | 1.7 | 8.7 | 0.00 | 0.00 | 0.00 | 86 | 1019.4 |
| 20260509233353 | 51 | 47 | 2.6 | 8.7 | 0.00 | 0.00 | 0.00 | 87 | 1019.4 |
| 20260509232414 | 50 | 35 | 2.6 | 7.0 | 0.00 | 0.00 | 0.00 | 86 | 1019.2 |
| 20260509231402 | 51 | 16 | 3.5 | 7.8 | 0.00 | 0.00 | 0.00 | 86 | 1019.2 |